DW9677 Weather Reports


Display with metric or nautical units.
time (UTC)temp
F
wind
direction
speed
MPH
gust
MPH
rain 1hr
in
rain 24hr
in
rain mn
in
humidity
%
barometer
mb
20210920084526 54 48 0.0 0.0 0.02 0.79 0.05 91 1018.5
20210920083016 53 48 0.0 1.0 0.01 0.78 0.04 91 1018.4
20210920080029 53 49 0.0 1.0 0.00 0.77 0.03 91 1018.2
20210920071528 52 48 0.0 0.0 0.00 0.77 0.03 91 1017.8
20210920070045 52 48 0.0 0.0 0.00 0.77 0.03 91 1017.7
20210920061620 0 0.0 0.0 0.00 0.77 0.03 1017.6
20210920060147 0 0.0 0.0 0.00 0.77 0.03 1017.6
20210920054649 0 0.0 0.0 0.00 0.77 0.03 1017.5
20210920053111 0 0.0 0.0 0.00 0.77 0.03 1017.5
20210920051554 0 0.0 0.0 0.00 0.77 0.03 1017.5
20210920050026 0 0.0 0.0 0.00 0.77 0.03 1017.3
20210920043144 0 0.0 0.0 0.00 0.77 0.03 1017.0
20210920043019 0 0.0 0.0 0.00 0.77 0.03 1017.0
20210920034650 0 0.0 0.0 0.00 0.77 0.03 1016.7
20210920034509 0 0.0 0.0 0.00 0.77 0.03 1016.7
20210920033058 0 0.0 0.0 0.00 0.77 0.03 1016.7
20210920031517 0 0.0 0.0 0.00 0.77 0.03 1016.6
20210920024641 0 0.0 0.0 0.00 0.77 0.03 1016.5
20210920023005 0 0.0 0.0 0.00 0.77 0.03 1016.4
20210919231548 51 48 0.0 0.0 0.02 0.77 0.03 92 1016.2
20210919230014 51 48 0.0 0.0 0.03 0.77 0.03 92 1016.1
20210919224519 51 48 0.0 0.0 0.04 0.76 0.02 92 1016.0
20210919223113 51 49 0.0 0.0 0.04 0.75 0.01 92 1016.0
20210919221557 51 49 0.0 0.0 0.05 0.75 0.01 92 1016.1
20210919214559 51 49 0.0 0.0 0.06 0.72 0.72 92 1015.9
20210919213047 51 48 0.0 0.0 0.07 0.71 0.71 92 1015.8
20210919210047 51 48 0.0 0.0 0.09 0.68 0.68 92 1015.7
20210919204601 51 48 0.0 0.0 0.09 0.66 0.66 92 1015.6
20210919203049 51 48 0.0 1.0 0.08 0.63 0.63 92 1015.6
20210919201536 51 48 0.0 0.0 0.11 0.61 0.61 92 1015.4
20210919200020 51 48 0.0 0.0 0.15 0.59 0.59 92 1015.3
20210919194548 51 48 0.0 1.0 0.16 0.56 0.56 92 1015.2
20210919193013 51 48 0.0 0.0 0.17 0.55 0.55 92 1015.2
20210919191524 52 48 0.0 0.0 0.13 0.49 0.49 92 1015.2
20210919190028 52 48 0.0 0.0 0.12 0.44 0.44 92 1015.1
20210919184625 52 49 0.0 0.0 0.14 0.41 0.41 92 1014.7
20210919184512 52 49 0.0 0.0 0.14 0.41 0.41 92 1014.7
20210919183035 53 49 0.0 1.0 0.16 0.38 0.38 92 1014.5
20210919174613 53 48 0.0 0.0 0.17 0.27 0.27 92 1013.9
20210919173120 54 48 0.0 1.0 0.16 0.22 0.22 92 1013.6
20210919163123 56 48 0.0 1.0 0.05 0.05 0.05 91 1013.1
20210919154549 58 48 0.0 0.0 0.00 0.00 0.00 89 1012.6
20210919153058 59 48 0.0 0.0 0.00 0.00 0.00 89 1012.6
20210919151536 59 49 0.0 0.0 0.00 0.00 0.00 89 1012.6
20210919150158 59 48 0.0 0.0 0.00 0.00 0.00 88 1012.6
20210919141614 60 48 0.0 0.0 0.00 0.00 0.00 85 1012.3
20210919140148 60 48 0.0 0.0 0.00 0.00 0.00 83 1012.1
20210919130026 63 49 0.0 1.0 0.00 0.00 0.00 77 1012.1
20210919121525 64 48 0.0 0.0 0.00 0.00 0.00 74 1012.2
20210919120006 65 48 0.0 0.0 0.00 0.00 0.00 70 1012.2
20210919113004 68 49 0.0 1.0 0.00 0.00 0.00 68 1012.2
20210919111653 67 48 0.0 1.0 0.00 0.00 0.00 67 1012.3
20210919111508 67 49 0.0 1.0 0.00 0.00 0.00 66 1012.3
20210919104711 66 48 0.0 2.0 0.00 0.00 0.00 68 1012.0
20210919103100 65 48 0.0 2.0 0.00 0.00 0.00 71 1012.0
20210919094555 63 48 0.0 1.0 0.00 0.00 0.00 75 1012.2
20210919091558 61 49 0.0 1.0 0.00 0.00 0.00 78 1012.4